CT1ETE Weather Reports


Display with metric or nautical units.
time (UTC)temp
F
wind
direction
speed
MPH
gust
MPH
rain 1hr
in
rain 24hr
in
rain mn
in
humidity
%
barometer
mb
20260507065326 54 150 8.0 11.0 0.00 0.01 0.00 81 1009.7
20260507063826 54 78 3.0 6.0 0.00 0.01 0.00 82 1009.6
20260507062325 53 123 0.0 6.0 0.00 0.01 0.00 83 1009.7
20260507060819 52 123 3.0 6.0 0.00 0.01 0.00 85 1009.7
20260507055319 51 121 2.0 6.0 0.00 0.01 0.00 86 1009.6
20260507053820 50 231 2.0 3.0 0.00 0.01 0.00 85 1009.5
20260507052318 50 231 1.0 3.0 0.00 0.01 0.00 85 1009.5
20260507051506 51 231 2.0 5.0 0.00 0.01 0.00 85 1009.4
20260507050010 51 109 1.0 3.0 0.00 0.01 0.00 85 1009.4
20260507043816 50 109 1.0 2.0 0.00 0.01 0.00 85 1009.5
20260507042315 50 109 0.0 2.0 0.00 0.01 0.00 85 1009.5
20260507040815 51 109 1.0 3.0 0.00 0.01 0.00 85 1009.6
20260507035315 51 109 0.0 2.0 0.00 0.01 0.00 85 1009.7
20260507035216 51 109 0.0 3.0 0.00 0.01 0.00 85 1009.7
20260507032315 51 109 2.0 4.0 0.00 0.01 0.00 84 1009.7
20260507031531 51 109 2.0 4.0 0.00 0.01 0.00 85 1009.7
20260507025313 51 109 0.0 4.0 0.00 0.01 0.00 84 1009.8
20260507024518 51 109 0.0 0.0 0.00 0.01 0.00 84 1009.8
20260507022314 51 109 0.0 0.0 0.00 0.01 0.00 84 1010.0
20260507020811 51 109 0.0 0.0 0.00 0.01 0.00 83 1010.1
20260507020711 52 109 0.0 0.0 0.00 0.01 0.00 83 1010.1
20260507013811 52 109 0.0 0.0 0.00 0.01 0.00 83 1010.2
20260507013708 52 109 0.0 0.0 0.00 0.01 0.00 83 1010.4
20260507010809 52 109 0.0 3.0 0.00 0.01 0.00 83 1010.3
20260507010004 52 109 2.0 4.0 0.00 0.01 0.00 84 1010.3
20260507003805 51 109 4.0 7.0 0.00 0.01 0.00 84 1010.4
20260507002306 52 174 3.0 6.0 0.00 0.01 0.00 84 1010.5
20260507000805 51 175 1.0 4.0 0.00 0.01 0.00 84 1010.6
20260506235306 52 175 2.0 5.0 0.00 0.01 0.00 83 1010.7
20260506233802 53 175 2.0 6.0 0.00 0.01 0.00 81 1010.7
20260506232306 53 176 2.0 4.0 0.00 0.01 0.00 80 1010.8
20260506230801 53 176 2.0 4.0 0.00 0.01 0.00 81 1010.7
20260506225301 53 225 1.0 3.0 0.00 0.01 0.01 81 1010.8
20260506223801 54 225 1.0 2.0 0.00 0.01 0.01 80 1010.9
20260506222259 54 225 0.0 2.0 0.00 0.01 0.01 80 1011.0
20260506220759 54 225 2.0 3.0 0.00 0.01 0.01 81 1011.2
20260506215305 54 227 2.0 2.0 0.00 0.01 0.01 81 1011.2
20260506213752 54 227 0.0 2.0 0.00 0.01 0.01 80 1011.1
20260506212253 55 227 0.0 2.0 0.00 0.01 0.01 80 1011.2
20260506210753 55 227 0.0 3.0 0.00 0.01 0.01 79 1011.3
20260506205253 55 227 3.0 5.0 0.00 0.01 0.01 77 1011.3
20260506203752 56 226 4.0 5.0 0.00 0.01 0.01 77 1011.3
20260506202947 56 225 3.0 6.0 0.00 0.01 0.01 76 1011.2
20260506200752 56 259 2.0 7.0 0.00 0.01 0.01 76 1011.2
20260506195253 57 259 4.0 8.0 0.00 0.01 0.01 75 1011.1
20260506193750 57 254 4.0 7.0 0.00 0.01 0.01 75 1011.0
20260506192251 58 299 5.0 10.0 0.00 0.01 0.01 73 1010.9
20260506190750 58 271 5.0 9.0 0.00 0.01 0.01 72 1010.8
20260506185250 59 252 4.0 9.0 0.00 0.01 0.01 70 1010.8
20260506183750 60 280 3.0 9.0 0.00 0.01 0.01 70 1010.9
20260506182250 60 247 4.0 10.0 0.00 0.01 0.01 69 1011.0
20260506180750 60 276 8.0 13.0 0.00 0.01 0.01 69 1011.0
20260506175251 61 275 9.0 15.0 0.00 0.01 0.01 68 1010.9
20260506173750 61 271 7.0 13.0 0.00 0.01 0.01 67 1010.9
20260506172250 61 230 6.0 12.0 0.00 0.01 0.01 64 1010.9
20260506170750 61 279 6.0 11.0 0.00 0.01 0.01 61 1010.9
20260506165251 62 303 5.0 12.0 0.00 0.01 0.01 60 1011.0
20260506163749 62 302 6.0 12.0 0.00 0.01 0.01 60 1011.2
20260506162950 64 253 3.0 8.0 0.00 0.01 0.01 56 1011.1
20260506160751 63 250 3.0 8.0 0.00 0.01 0.01 59 1011.2
20260506155251 62 280 4.0 9.0 0.00 0.01 0.01 60 1011.3
20260506154442 62 261 6.0 12.0 0.00 0.01 0.01 59 1011.3
20260506152250 63 290 5.0 12.0 0.00 0.01 0.01 58 1011.5
20260506150750 63 350 6.0 11.0 0.00 0.01 0.01 56 1011.6
20260506145250 64 355 5.0 13.0 0.00 0.01 0.01 54 1011.8
20260506143750 65 350 7.0 13.0 0.00 0.01 0.01 51 1012.0
20260506142248 68 288 3.0 10.0 0.00 0.01 0.01 48 1012.1
20260506140748 67 244 7.0 12.0 0.00 0.02 0.01 49 1012.4
20260506135248 68 315 5.0 9.0 0.00 0.03 0.01 49 1012.6
20260506134436 67 291 3.0 9.0 0.00 0.06 0.01 47 1012.7
20260506132247 67 235 4.0 10.0 0.00 0.06 0.01 50 1012.8
20260506130748 66 332 3.0 9.0 0.00 0.06 0.01 54 1013.0
20260506125246 63 311 3.0 6.0 0.00 0.06 0.01 55 1013.2
20260506123745 62 339 4.0 9.0 0.00 0.06 0.01 57 1013.3
20260506122943 64 5 4.0 9.0 0.00 0.06 0.01 54 1013.4
20260506120746 65 238 4.0 10.0 0.00 0.06 0.01 56 1013.5
20260506115245 63 252 3.0 10.0 0.00 0.06 0.01 58 1013.5
20260506113744 63 274 3.0 9.0 0.01 0.06 0.01 55 1013.8
20260506112243 62 312 3.0 7.0 0.01 0.06 0.01 58 1013.9
20260506110744 62 296 3.0 8.0 0.01 0.06 0.01 59 1014.0
20260506105244 62 225 4.0 10.0 0.01 0.06 0.01 63 1014.1
20260506104436 61 200 2.0 6.0 0.00 0.05 0.00 65 1014.1
20260506102243 60 323 3.0 9.0 0.00 0.05 0.00 66 1014.3
20260506100743 61 286 3.0 9.0 0.00 0.05 0.00 69 1014.3
20260506095243 60 246 2.0 6.0 0.00 0.05 0.00 71 1014.4
20260506093743 59 236 4.0 8.0 0.00 0.05 0.00 71 1014.4
20260506092241 59 242 4.0 8.0 0.00 0.05 0.00 75 1014.4
20260506090740 58 221 4.0 8.0 0.00 0.05 0.00 78 1014.5
20260506085239 58 251 2.0 5.0 0.00 0.05 0.00 77 1014.5
20260506083739 57 289 1.0 4.0 0.00 0.05 0.00 80 1014.5
20260506082939 56 255 2.0 4.0 0.00 0.05 0.00 82 1014.5
20260506081429 55 248 2.0 4.0 0.00 0.05 0.00 82 1014.5
20260506072231 53 115 3.0 7.0 0.00 0.05 0.00 85 1014.4
20260506070731 52 110 4.0 7.0 0.00 0.05 0.00 86 1014.5